Weather History for Tiree, United Kingdom

Change the Weather History Date:

Wednesday, December 7, 2011

  Actual Average Record
Temperature  
Mean Temperature 42 °F -  
Max Temperature 44 °F 47 °F 51 °F (2013)
Min Temperature 39 °F 39 °F 30 °F (2010)
Degree Days  
Heating Degree Days 24    
Moisture  
Dew Point 35 °F    
Average Humidity 77    
Maximum Humidity 93    
Minimum Humidity 57    
Precipitation  
Precipitation 0.08 in 0.16 in - ()
Sea Level Pressure  
Sea Level Pressure 29.47 in    
Wind  
Wind Speed 30 mph ()    
Max Wind Speed 56 mph    
Max Gust Speed 72 mph    
Visibility 6.8 miles    
Events Rain    
Averages and records for this station are not official NWS values.
T = Trace of Precipitation, MM = Missing Value Source: Averaged Metar Reports

Daily Weather History Graph

Daily Weather History Graph

Search for Another Location

Airport:

Trip Planner

Search our weather history database for the weather conditions in past years. The results will help you decide how hot, cold, wet, or windy it might be!

Date:

Astronomy

Dec. 07, 2011 Rise Set
Actual Time 8:46 AM GMT 3:51 PM GMT
Civil Twilight 7:58 AM GMT 4:38 PM GMT
Nautical Twilight 7:09 AM GMT 5:27 PM GMT
Astronomical Twilight 6:23 AM GMT 6:13 PM GMT
Moon 1:59 PM GMT (12/7) 5:30 AM GMT (12/7)
Length of Visible Light 8h 39m
Length of Day
7h 05m
Waxing Gibbous, 91% of the Moon is Illuminated
Dec 7
Waxing Gibbous
Dec 10
Full
Dec 18
Last Quarter
Dec 24
New
Jan 1
First Quarter

Hourly Weather History & Observations

Time (GMT) Temp. Windchill Dew Point Humidity Pressure Visibility Wind Dir Wind Speed Gust Speed Precip Events Conditions
12:20 AM 42.8 °F 31.4 °F 37.4 °F 81% 29.12 in 6.2 mi West 35.7 mph 48.3 mph N/A   Partly Cloudy
12:50 AM 44.6 °F 33.3 °F 33.8 °F 66% 29.12 in 6.2 mi West 40.3 mph 52.9 mph N/A   Scattered Clouds
1:20 AM 44.6 °F 32.7 °F 35.6 °F 71% 29.09 in 6.2 mi West 46.0 mph - N/A   Scattered Clouds
1:50 AM 41.0 °F 28.0 °F 39.2 °F 93% 29.09 in 6.2 mi West 42.6 mph 58.7 mph N/A Rain Light Rain Showers
2:20 AM 42.8 °F 30.5 °F 37.4 °F 81% 29.06 in 6.2 mi West 42.6 mph 56.4 mph N/A   Scattered Clouds
2:50 AM 43 °F - 40 °F 85% 29.06 in 4 mi West 42.6 mph - - Rain Rain
2:50 AM 42.8 °F 30.5 °F 41.0 °F 93% 29.06 in 5.6 mi West 42.6 mph 61.0 mph N/A   Mostly Cloudy
3:20 AM 42.8 °F 31.0 °F 37.4 °F 81% 29.09 in 6.2 mi NW 39.1 mph 56.4 mph N/A   Scattered Clouds
3:50 AM 42.8 °F 30.3 °F 35.6 °F 76% 29.12 in 6.2 mi NW 44.9 mph 64.4 mph N/A   Scattered Clouds
4:20 AM 41.0 °F 26.5 °F 37.4 °F 87% 29.12 in 5.0 mi NW 56.4 mph 72.5 mph N/A   Mostly Cloudy
4:50 AM 42.8 °F 30.4 °F 35.6 °F 76% 29.18 in 6.2 mi NNW 43.7 mph 61.0 mph N/A   Unknown
5:20 AM 42.8 °F 30.8 °F 32.0 °F 66% 29.24 in 6.2 mi NW 40.3 mph 57.5 mph N/A   Partly Cloudy
5:50 AM 44 °F - 34 °F 57% 29.26 in 9 mi NW 38.0 mph - -  
5:50 AM 44.6 °F 33.6 °F 33.8 °F 66% 29.24 in 6.2 mi NW 38.0 mph 52.9 mph N/A   Unknown
6:20 AM 42.8 °F 31.4 °F 35.6 °F 76% 29.30 in 4.3 mi NW 35.7 mph 54.1 mph N/A Rain Light Rain Showers
6:50 AM 44.6 °F 34.1 °F 33.8 °F 66% 29.30 in 6.2 mi NW 34.5 mph - N/A   Unknown
7:20 AM 42.8 °F 31.6 °F 33.8 °F 70% 29.33 in 6.2 mi NW 34.5 mph 46.0 mph N/A   Partly Cloudy
7:50 AM 42.8 °F 32.5 °F 33.8 °F 70% 29.36 in 6.2 mi NW 28.8 mph - N/A   Partly Cloudy
8:20 AM 42.8 °F 32.1 °F 28.4 °F 57% 29.39 in 6.2 mi WNW 31.1 mph 42.6 mph N/A   Unknown
8:50 AM 41 °F - 33 °F 62% 29.42 in 14 mi WNW 26.5 mph - - Rain Rain
8:50 AM 41.0 °F 30.5 °F 32.0 °F 70% 29.42 in 6.2 mi WNW 26.5 mph - N/A   Unknown
9:20 AM 42.8 °F 33.3 °F 32.0 °F 66% 29.42 in 6.2 mi WNW 24.2 mph - N/A   Scattered Clouds
9:50 AM 41.0 °F 30.9 °F 35.6 °F 81% 29.44 in 6.2 mi WNW 24.2 mph 35.7 mph N/A Rain Rain Showers
10:20 AM 39.2 °F 27.8 °F 35.6 °F 87% 29.47 in 6.2 mi NW 27.6 mph - N/A Rain Rain Showers
10:50 AM 41.0 °F 31.6 °F 35.6 °F 81% 29.47 in 5.6 mi NW 20.7 mph - N/A Rain Rain Showers
11:20 AM 41.0 °F 32.5 °F 37.4 °F 87% 29.50 in 6.2 mi NNW 17.3 mph - N/A   Scattered Clouds
11:50 AM 40 °F - 36 °F 82% 29.53 in 9 mi NW 28.8 mph - - Rain Rain
11:50 AM 41.0 °F 29.3 °F 37.4 °F 87% 29.50 in 6.2 mi NNW 33.4 mph - N/A   Mostly Cloudy
12:20 PM 41.0 °F 31.4 °F 35.6 °F 81% 29.53 in 6.2 mi WNW 21.9 mph 35.7 mph N/A Rain Rain Showers
12:50 PM 39.2 °F 29.0 °F 35.6 °F 87% 29.56 in 6.2 mi NNW 21.9 mph - N/A   Scattered Clouds
1:20 PM 39.2 °F 29.0 °F 35.6 °F 87% 29.56 in 6.2 mi WNW 21.9 mph - N/A   Scattered Clouds
1:50 PM 39.2 °F 27.0 °F 35.6 °F 87% 29.59 in 6.2 mi NW 32.2 mph 44.9 mph N/A Rain Rain Showers
2:20 PM 39.2 °F 28.0 °F 35.6 °F 87% 29.59 in 6.2 mi NW 26.5 mph 39.1 mph N/A Rain Rain Showers
2:50 PM 41 °F - 37 °F 80% 29.61 in 9 mi NW 18.4 mph - - Rain Rain
2:50 PM 41.0 °F 32.2 °F 37.4 °F 87% 29.59 in 6.2 mi NW 18.4 mph - N/A   Scattered Clouds
3:20 PM 41.0 °F 29.8 °F 33.8 °F 76% 29.62 in 6.2 mi WNW 29.9 mph 41.4 mph N/A   Partly Cloudy
3:50 PM 42.8 °F 34.5 °F 35.6 °F 76% 29.62 in 6.2 mi WNW 18.4 mph - N/A   Partly Cloudy
4:20 PM 41.0 °F 30.2 °F 33.8 °F 76% 29.65 in 6.2 mi WNW 27.6 mph - N/A   Unknown
4:50 PM 42.8 °F 33.3 °F 35.6 °F 76% 29.65 in 6.2 mi WNW 24.2 mph - N/A   Unknown
5:20 PM 41.0 °F 30.9 °F 35.6 °F 81% 29.68 in 6.2 mi WNW 24.2 mph - N/A   Partly Cloudy
5:50 PM 42 °F - 33 °F 62% 29.70 in 15 mi WNW 26.5 mph - - Rain Rain
5:50 PM 42.8 °F 32.9 °F 33.8 °F 70% 29.68 in 6.2 mi WNW 26.5 mph - N/A   Partly Cloudy
6:20 PM 42.8 °F 32.9 °F 32.0 °F 66% 29.68 in 6.2 mi WNW 26.5 mph - N/A   Scattered Clouds
6:50 PM 39.2 °F 28.5 °F 33.8 °F 81% 29.71 in 6.2 mi West 24.2 mph - N/A   Scattered Clouds
7:20 PM 41.0 °F 31.1 °F 35.6 °F 81% 29.71 in 6.2 mi WNW 23.0 mph - N/A   Unknown
7:50 PM 41.0 °F 31.9 °F 35.6 °F 81% 29.71 in 6.2 mi WNW 19.6 mph - N/A   Partly Cloudy
8:20 PM 41.0 °F 31.9 °F 33.8 °F 76% 29.71 in 6.2 mi WNW 19.6 mph - N/A   Unknown
8:50 PM 41 °F - 35 °F 71% 29.73 in 13 mi WNW 12.7 mph - -   Scattered Clouds
8:50 PM 41.0 °F 33.9 °F 35.6 °F 81% 29.71 in 6.2 mi WNW 12.7 mph - N/A   Partly Cloudy
9:20 PM 41.0 °F 34.3 °F 35.6 °F 81% 29.71 in 6.2 mi West 11.5 mph - N/A   Unknown
9:50 PM 42.8 °F 35.8 °F 37.4 °F 81% 29.71 in 6.2 mi West 13.8 mph - N/A   Partly Cloudy
10:20 PM 42.8 °F 34.8 °F 33.8 °F 70% 29.71 in 6.2 mi West 17.3 mph - N/A   Partly Cloudy
10:50 PM 42.8 °F 35.1 °F 33.8 °F 70% 29.71 in 6.2 mi West 16.1 mph - N/A   Unknown
11:20 PM 42.8 °F 36.6 °F 37.4 °F 81% 29.68 in 6.2 mi WSW 11.5 mph - N/A   Partly Cloudy
11:50 PM 42 °F - 37 °F 76% 29.69 in 12 mi WSW 8.1 mph - -   Scattered Clouds
11:50 PM 42.8 °F 38.0 °F 37.4 °F 81% 29.68 in 6.2 mi WSW 8.1 mph - N/A   Partly Cloudy